This is the latest recevied weather packets stored in our database for station/object IN3XSV. If no packets are shown the sender has not sent any weather packets the latest 10 day(s).
| Time | Temp. | Humidity | Pressure | Rain* | Wind** | Luminosity | Snow |
|---|---|---|---|---|---|---|---|
| 1776951550 | 21.67° C | 26% | 1011.4 hPa | 0 mm | - | - | - |
| 1776951250 | 21.67° C | 28% | 1011.6 hPa | 0 mm | - | - | - |
| 1776950950 | 21.67° C | 28% | 1011.4 hPa | 0 mm | - | - | - |
| 1776950650 | 21.11° C | 28% | 1011.5 hPa | 0 mm | - | - | - |
| 1776950458 | 21.11° C | 27% | 1011.8 hPa | 0 mm | - | - | - |
| 1776950350 | 21.11° C | 27% | 1011.8 hPa | 0 mm | - | - | - |
| 1776950086 | 21.67° C | 29% | 1011.9 hPa | 0 mm | - | - | - |
| 1776950050 | 21.67° C | 29% | 1011.9 hPa | 0 mm | - | - | - |
| 1776949750 | 21.67° C | 29% | 1012.1 hPa | 0 mm | - | - | - |
| 1776949450 | 21.11° C | 29% | 1012 hPa | 0 mm | - | - | - |
| 1776949150 | 21.11° C | 30% | 1012 hPa | 0 mm | - | - | - |
| 1776948850 | 20.56° C | 29% | 1012.3 hPa | 0 mm | - | - | - |
| 1776948550 | 20.56° C | 30% | 1012.4 hPa | 0 mm | - | - | - |
| 1776948250 | 20° C | 31% | 1012.4 hPa | 0 mm | - | - | - |
| 1776947950 | 20° C | 31% | 1012.5 hPa | 0 mm | - | - | - |
| 1776947650 | 20° C | 31% | 1012.6 hPa | 0 mm | - | - | - |
| 1776947350 | 19.44° C | 32% | 1012.7 hPa | 0 mm | - | - | - |
| 1776947050 | 19.44° C | 33% | 1012.8 hPa | 0 mm | - | - | - |
| 1776946750 | 19.44° C | 33% | 1012.9 hPa | 0 mm | - | - | - |
| 1776946450 | 19.44° C | 34% | 1013 hPa | 0 mm | - | - | - |
| 1776946150 | 20° C | 34% | 1012.9 hPa | 0 mm | - | - | - |
| 1776945891 | 19.44° C | 36% | 1013.1 hPa | 0 mm | - | - | - |
| 1776945850 | 19.44° C | 36% | 1013.1 hPa | 0 mm | - | - | - |
| 1776945550 | 19.44° C | 37% | 1013.1 hPa | 0 mm | - | - | - |
| 1776945250 | 18.89° C | 37% | 1013.2 hPa | 0 mm | - | - | - |
* Rain latest hour (hover to see other rain measurements)
** Current wind speed in m/s (hover to see current wind gust speed)